Location: New Plymouth
(39.0670°S, 174.0830°E)
Time: 17:12:10
(UTC+13:00)

Envisat - Pass Details

Date: 24 January 2019
Orbit: 764 x 766 km, 98.1° (Epoch: 23 October)

Event Time Altitude Azimuth Distance (km) Brightness Sun altitude
Rises 21:26:25 0° 173° (S) 3,271 6.6 -7.6°
Reaches altitude 10° 21:28:48 10° 178° (S) 2,337 5.9 -8.0°
Maximum altitude 21:33:47 52° 252° (WSW) 962 4.0 -8.8°
Drops below altitude 10° 21:38:43 10° 327° (NNW) 2,309 5.5 -9.6°
Sets 21:41:03 0° 332° (NNW) 3,227 6.2 -10.0°
